Regional Weather Roundup
Issued by NWS

Home | Current Version | Previous Version | Graphics & Text | Print | Product List | Glossary On
Versions: 1 2 3 4 5 6 7 8 9 10 11 12 13 14 15 16 17 18 19 20 21 22 23 24 25 26 27 28 29 30 31 32 33 34 35 36 37 38 39 40 41 42 43 44 45 46 47 48 49 50
000
ASUS43 KDMX 260103
RWRIA

WEATHER ROUNDUP FOR IOWA
NATIONAL WEATHER SERVICE DES MOINES IA
800 PM CDT THU AUG 25 2016

NOTE: "FAIR" INDICATES FEW OR NO CLOUDS BELOW 12,000 FEET WITH NO
SIGNIFICANT WEATHER AND/OR OBSTRUCTIONS TO VISIBILITY.

* - THESE STATIONS ARE NOT NWS STATIONS...THUS NOT UNDER NWS
QUALITY CONTROL.  THEY ALSO DO NOT REPORT WEATHER SUCH
AS PRECIPITATION OR FOG.

IAZ001>003-012>014-020>022-031>034-043>046-260200-
   NORTHWEST IOWA

CITY           SKY/WX    TMP DP  RH WIND       PRES   REMARKS
CARROLL *      CLEAR     68  63  83 NW6       30.12R
CHEROKEE *     CLEAR     69  61  75 CALM      30.12R
DENISON *      CLEAR     70  61  73 CALM      30.11R
LE MARS *      CLEAR     70  59  68 NW3       30.13S
ORANGE CITY *  CLEAR     66  61  82 W3        30.13S
SHELDON *        N/A     66  63  88 NW3       30.12R
SIOUX CITY     CLEAR     70  59  68 N5        30.12R
SPENCER        CLEAR     65  59  81 NW5       30.12R
STORM LAKE *   CLEAR     66  61  82 W5        30.13R
$$

IAZ055>058-069>071-079>083-090>094-260200-
   SOUTHWEST IOWA

CITY           SKY/WX    TMP DP  RH WIND       PRES   REMARKS
ATLANTIC *     CLEAR     70  64  83 N3        30.11R
AUDUBON *      CLEAR     70  63  78 CALM      30.13R
CLARINDA *       N/A     68  64  88 MISG      30.13R
COUNCIL BLFS * CLEAR     70  63  78 N3        30.12R
CRESTON *      MOCLDY    68  63  83 N7        30.12S
HARLAN  *      CLEAR     68  64  88 N6        30.15R
LAMONI         PTCLDY    68  64  87 N6        30.10R
RED OAK *      CLOUDY    70  64  83 CALM      30.11R
SHENANDOAH *   CLEAR     66 -40   1 N5        30.11R
$$

IAZ047>049-059>061-072>074-084-260200-
   CENTRAL IOWA

CITY           SKY/WX    TMP DP  RH WIND       PRES   REMARKS
AMES           CLEAR     68  66  93 CALM      30.10R
ANKENY *         N/A    N/A N/A N/A MISG        N/A
BOONE *        CLEAR     70  63  78 CALM      30.10S
CHARITON *       N/A     68  64  88 MISG      30.10R
DES MOINES     MOCLDY    74  63  68 N3        30.09S
GRINNELL*      PTCLDY    67  64  88 NW3       30.11R
KNOXVILLE *    CLOUDY    70  64  83 CALM      30.09S
MARSHALLTOWN   CLEAR     71  65  81 SW3       30.10R
NEWTON *       CLEAR     70  66  88 N3        30.09S
PELLA *        PTCLDY    68  65  90 CALM      30.11R
PERRY *          N/A     69  68  96 CALM      30.11R
$$

IAZ004>006-015-016-023>025-035-036-260200-
   NORTH CENTRAL IOWA

CITY           SKY/WX    TMP DP  RH WIND       PRES   REMARKS
ALGONA *       CLEAR     68  63  83 W5        30.11R
ESTHERVILLE    CLEAR     63  61  93 NW7       30.11R
FORT DODGE *   CLEAR     70  59  68 CALM      30.11S
MASON CITY     CLEAR     68  60  75 W5        30.11R
FOREST CITY *    N/A    N/A N/A N/A MISG        N/A
WEBSTER CITY * CLEAR     68  66  94 NW5       30.09R
IOWA FALLS *     N/A     70  63  78 SW5       30.11S
$$

IAZ007>011-017>019-026>030-037>042-050>054-066-260200-
   NORTHEAST IOWA

CITY           SKY/WX    TMP DP  RH WIND       PRES   REMARKS
CEDAR RAPIDS   CLOUDY    70  67  90 CALM      30.08S
CHARLES CITY * CLEAR     68  66  94 CALM      30.09S
CLINTON *      CLOUDY    72  69  90 N5        30.08R
DECORAH *      CLEAR     70  61  73 VRB3      30.08R
DUBUQUE        CLOUDY    70  64  81 W3        30.09S
MONTICELLO *   CLOUDY    70  64  83 NW3       30.08S
OELWEIN *      MOCLDY    68  64  88 SW3       30.10S
WATERLOO       CLEAR     70  62  76 W5        30.08R
$$

IAZ064-065-067-068-078-260200-
   EAST CENTRAL IOWA

CITY           SKY/WX    TMP DP  RH WIND       PRES   REMARKS
DAVENPORT      CLOUDY    71  67  87 NW3       30.08R
IOWA CITY      CLOUDY    74  64  71 N6        30.10R
MT. PLEASANT * PTCLDY    71  67  84 N3        30.08R
MUSCATINE *    CLOUDY    72  68  88 CALM      30.07F
$$

IAZ062-063-075>077-085>089-095>099-260200-
   SOUTHEAST IOWA

CITY           SKY/WX    TMP DP  RH WIND       PRES   REMARKS
BURLINGTON     CLOUDY    71  65  81 N8        30.06F
FAIRFIELD *    CLOUDY    72  66  83 CALM      30.08S
FORT MADISON * CLOUDY    70  66  88 N3        30.08R
KEOKUK *       CLOUDY    73  68  83 N5        30.06R
OSKALOOSA *      N/A     68  65  90 N5        30.09S
OTTUMWA        CLOUDY    71  64  78 N7        30.08R
WASHINGTON *   CLOUDY    72  68  88 N5        30.09S
$$

ABBREVIATIONS USED IN REMARKS
   TC - TEMPERATURES IN CELSIUS
  WCI - WIND CHILL INDEX
   HX - HEAT INDEX
  VSB - VISIBILITY
$$





USA.gov is the U.S. government's official web portal to all federal, state and local government web resources and services.